Wind_Speed
14 14 13 13 14 14 16 17 17 16 15 15 13 13 12 10 9 9 11 11 11 12 12 10 10 8 3 5 7 6 3 3 6 8 11 11 17 15 7 6 4 6 7 13 8 8 13
14 13 13 13 12 14 15 16 15 14 13 12 12 10 8 9 9 9 10 11 13 13 10 9 9 5 4 5 1 3 2 5 5 9 13 19 10 12 4 5 5 11 17 13 7 7 5
14 12 12 12 11 13 14 14 12 11 10 9 8 7 8 8 9 10 12 14 14 11 8 8 8 6 7 12 7 2 2 6 4 7 12 3 5 10 7 5 8 11 6 7 7 13 5
13 12 11 11 11 11 12 10 9 7 6 4 5 6 7 9 11 13 15 14 11 8 7 8 8 7 6 4 6 3 4 2 5 6 8 5 4 11 11 10 3 3 3 4 5 12 9
14 12 10 10 9 10 9 7 6 5 3 1 2 5 8 11 14 16 15 12 9 7 7 8 6 5 7 2 7 1 5 6 2 4 4 2 3 4 2 2 3 2 5 5 5 16 5
14 11 10 8 8 8 6 4 3 3 3 3 5 8 12 16 17 16 14 11 7 7 8 7 5 3 11 3 5 5 3 5 1 3 5 4 4 3 5 4 3 4 5 6 7 2 4
14 12 9 7 7 6 4 2 1 2 3 5 8 11 13 15 16 15 13 9 7 2 12 11 10 9 5 5 8 7 5 2 3 7 4 9 5 4 3 2 3 4 5 10 4 5 2
16 12 9 6 6 4 3 1 1 4 5 8 9 10 12 14 13 13 13 3 4 1 7 11 8 4 3 2 8 8 5 3 3 5 7 3 4 3 4 2 3 4 6 5 4 4 3
16 13 9 7 6 4 3 3 4 5 7 8 9 10 12 11 9 11 5 5 8 3 4 3 3 6 1 4 6 4 3 6 9 6 4 7 2 3 3 8 9 7 5 5 4 6 4
17 13 10 7 5 4 4 5 6 7 7 8 8 9 10 8 7 6 7 3 7 5 4 5 4 4 1 6 4 1 3 5 3 2 9 6 1 4 5 7 6 4 5 5 5 4 3
17 15 11 8 6 4 5 7 7 8 8 9 8 9 10 10 3 2 5 3 2 6 4 5 4 6 5 1 11 1 1 6 4 4 7 3 6 8 8 4 5 2 0 3 3 4 3
19 15 11 8 7 4 6 9 10 10 9 10 9 10 9 3 1 3 5 1 4 5 1 2 6 5 5 5 5 5 1 1 4 9 7 4 10 4 4 4 2 5 4 5 3 2 2
19 15 12 9 7 4 6 11 13 11 11 10 9 9 6 3 3 2 1 0 5 4 5 4 5 7 6 2 6 6 4 6 4 3 3 5 4 3 5 3 1 4 6 3 4 4 3
19 16 13 10 7 4 6 12 14 13 13 11 10 7 4 5 2 5 2 4 1 5 3 6 5 7 6 4 3 2 7 4 8 6 3 5 3 6 7 5 2 5 4 4 1 1 4
20 16 13 10 7 4 5 11 15 15 15 13 11 7 6 4 3 5 2 3 5 4 6 6 5 5 4 1 0 6 6 4 5 7 5 4 3 3 6 4 3 5 5 1 5 1 3
20 16 13 10 7 4 5 10 15 16 17 15 12 8 5 7 4 4 4 4 1 5 4 5 6 6 7 7 5 4 4 5 2 6 5 5 4 3 3 2 5 5 2 5 4 1 2
20 16 13 11 7 5 4 9 14 16 18 17 12 6 9 7 6 3 2 5 4 7 11 5 3 2 2 7 5 4 4 5 7 4 10 5 4 3 2 5 4 4 3 4 2 4 4
20 17 13 11 8 5 4 9 13 16 21 21 11 1 11 12 4 4 2 3 2 3 4 3 4 5 4 5 6 6 4 4 9 9 3 3 4 3 3 2 2 1 3 4 4 3 1
20 17 13 10 8 5 4 9 14 18 25 23 6 4 12 15 3 3 6 3 1 6 4 1 5 6 5 4 5 9 5 7 10 5 1 3 2 3 4 4 5 1 3 5 6 3 4
21 17 13 10 8 6 4 8 15 21 28 19 3 2 4 10 8 5 5 3 2 6 2 5 6 3 4 4 4 4 4 3 6 4 3 3 3 5 5 3 0 2 5 4 6 3 4
21 18 14 11 9 7 5 8 15 22 26 12 4 4 10 3 5 5 6 8 6 2 1 3 1 4 5 3 5 5 5 4 2 1 2 3 3 4 4 5 4 4 6 7 4 5 5
21 18 14 11 9 8 6 8 12 18 19 14 4 3 14 11 18 4 5 5 8 8 6 4 4 5 8 4 1 6 8 5 4 5 3 4 1 2 2 7 7 4 7 7 7 6 4
21 18 15 12 9 8 7 7 9 15 16 9 4 2 3 3 5 3 3 1 2 9 3 4 5 12 14 7 21 18 19 16 10 5 2 3 4 3 2 5 5 4 3 5 3 3 2
22 19 16 12 10 8 8 7 8 11 12 5 4 2 4 2 2 4 6 6 5 7 6 13 18 10 12 19 19 17 19 17 14 10 7 4 3 3 2 4 2 4 3 4 5 4 6
22 19 16 13 11 9 7 7 7 9 10 6 5 4 3 1 2 3 4 3 18 26 15 19 13 19 18 7 4 4 5 7 5 6 5 5 4 3 3 1 6 5 2 3 4 3 7
23 20 17 14 12 10 8 7 7 7 7 7 8 7 5 8 4 6 4 21 6 4 4 5 13 10 5 5 4 4 4 5 4 3 12 7 6 4 2 4 6 5 4 6 2 3 4
23 20 18 15 12 10 9 7 7 7 7 6 7 7 5 4 6 5 2 7 10 8 4 6 4 3 3 3 2 3 3 2 5 7 3 3 3 4 4 3 7 8 5 5 3 6 7
23 21 18 16 13 11 9 8 7 7 6 7 8 8 6 4 3 4 4 8 16 15 5 10 5 1 4 3 3 3 2 4 2 6 7 7 6 4 3 3 7 11 6 7 6 5 11
23 20 18 16 13 12 10 8 8 7 7 6 8 7 7 4 3 5 5 7 12 12 14 21 6 7 8 4 1 3 1 0 2 3 4 2 7 6 9 6 9 14 13 14 8 5 10
Wind_Direction
254 260 268 276 284 292 295 298 300 298 293 287 281 272 265 254 237 222 214 210 199 189 184 189 216 230 239 257 265 151 10 31 189 218 222 236 256 243 259 240 187 107 94 82 86 61 77
247 256 268 273 284 293 298 301 303 300 296 289 279 268 255 235 215 206 198 188 177 172 176 200 216 224 225 257 156 200 282 346 310 248 303 269 267 248 289 98 86 118 109 115 162 102 69
240 251 261 273 285 294 299 305 305 307 306 289 270 245 224 211 196 185 175 166 162 167 181 202 207 212 250 254 347 239 301 341 23 13 355 66 346 33 346 73 72 111 112 155 170 153 169
236 246 257 271 284 294 302 306 314 324 315 289 250 222 202 181 173 161 155 156 160 169 182 196 198 222 258 270 267 162 320 288 353 349 10 9 358 10 25 106 50 173 124 142 230 172 177
229 238 251 265 284 295 301 309 326 346 341 347 214 177 168 160 155 150 150 152 157 166 180 186 200 229 265 245 187 62 208 340 182 30 353 84 22 300 30 96 2 290 234 169 193 179 147
226 231 239 260 279 293 296 307 341 6 44 98 125 143 148 151 147 146 149 143 142 152 164 171 197 281 263 202 157 195 195 142 160 210 266 251 263 25 26 69 203 254 249 176 137 147 88
222 224 232 251 270 283 284 282 1 80 95 110 121 133 143 147 152 155 150 138 126 126 192 201 199 218 138 110 123 164 164 151 269 202 232 233 67 120 115 28 308 357 30 111 98 77 63
215 216 222 235 260 275 240 197 126 109 117 117 122 135 148 158 162 161 159 157 20 296 230 254 158 149 143 229 136 121 140 197 221 250 266 358 100 19 289 112 356 342 29 42 111 127 106
209 211 212 221 248 252 204 176 147 132 126 118 125 144 157 162 168 168 180 335 285 217 182 133 105 114 215 24 63 74 4 307 235 247 96 106 132 277 8 50 21 46 77 24 33 343 337
203 206 207 213 230 232 191 180 159 155 143 126 130 149 161 160 175 206 267 249 284 5 97 171 218 146 6 129 67 120 279 292 320 77 114 91 13 332 58 55 32 63 19 4 332 12 229
199 202 201 208 215 216 193 180 172 174 156 134 133 152 164 172 287 283 240 300 287 322 71 192 70 135 147 276 154 137 172 346 307 48 77 73 54 33 57 46 24 140 273 271 311 306 356
200 195 195 203 208 202 193 184 184 183 162 150 143 155 160 171 46 231 291 286 312 54 188 123 146 189 167 178 85 138 128 1 31 78 67 93 83 45 358 302 240 280 287 257 248 170 25
198 190 189 198 202 194 195 187 189 186 172 167 147 150 154 169 217 238 247 200 39 112 156 149 169 137 129 92 162 155 131 50 25 102 139 104 89 154 350 312 9 8 32 2 2 18 220
192 188 185 192 198 192 199 188 190 188 178 178 167 161 172 196 240 199 188 50 325 141 186 132 149 119 116 113 351 109 122 63 10 13 197 129 19 2 347 64 6 317 81 125 77 59 282
185 186 184 187 191 197 198 188 188 187 180 183 181 183 212 196 212 202 74 60 219 338 113 132 152 129 91 92 20 94 80 93 22 358 75 98 97 60 46 343 32 350 45 189 107 337 50
181 183 181 186 182 199 189 186 184 185 181 181 174 187 206 213 212 200 70 243 174 12 6 127 177 197 167 167 185 123 87 5 71 4 27 13 100 351 141 326 6 107 218 42 2 90 303
178 181 178 185 174 193 181 181 179 182 178 173 163 180 194 211 205 170 173 233 94 24 26 15 311 103 115 144 190 126 72 48 15 20 63 16 83 260 30 35 46 14 15 26 83 117 153
175 179 176 182 170 184 170 176 175 178 172 170 175 127 186 178 141 201 230 251 62 95 310 6 12 64 106 67 50 74 97 64 3 339 66 17 127 70 123 93 11 313 81 87 107 305 46
176 176 176 177 169 171 155 171 172 173 171 172 183 178 178 174 143 285 277 63 86 155 237 71 39 44 36 83 82 104 85 42 18 44 107 352 38 55 9 4 321 318 127 119 115 102 172
179 172 174 174 168 164 149 166 173 175 175 182 216 90 137 199 240 213 194 138 73 25 60 50 100 74 78 70 72 117 108 85 57 64 62 35 84 143 173 182 141 343 332 334 140 114 211
180 171 172 171 165 160 150 157 174 180 185 197 239 184 169 208 279 249 177 163 145 120 356 111 123 189 139 144 127 102 100 141 129 183 19 75 99 39 343 330 332 346 339 332 313 246 170
179 172 173 170 165 160 155 146 174 187 193 209 295 47 174 178 218 268 158 203 159 188 142 224 179 199 116 78 48 164 143 170 172 213 171 28 188 83 301 22 16 307 292 270 260 284 303
178 174 173 171 164 159 156 143 157 186 194 204 223 304 160 34 182 101 220 137 255 118 53 296 125 87 76 88 77 66 84 71 92 126 94 81 118 77 263 350 354 7 263 316 319 354 303
178 177 172 172 164 157 159 153 144 168 182 185 152 80 93 285 98 186 157 204 135 110 113 39 118 98 121 118 102 78 65 56 70 40 116 119 88 87 220 6 46 223 328 56 110 52 3
177 178 174 172 166 158 160 159 152 155 176 186 191 139 129 218 243 299 188 115 100 87 76 65 68 126 140 82 66 54 358 18 348 36 57 116 110 75 115 211 300 323 57 92 103 318 62
178 178 176 175 172 163 161 162 156 157 168 171 169 143 138 123 261 257 165 137 128 104 47 59 113 137 123 74 78 143 191 195 168 122 31 46 88 109 80 137 211 228 126 96 54 261 92
179 180 179 178 177 172 167 163 160 158 162 154 156 162 148 103 32 37 97 138 128 109 107 121 131 101 85 80 102 154 246 189 164 169 188 47 351 145 173 215 281 249 171 106 117 234 142
181 180 181 182 181 179 175 171 166 165 159 155 136 148 156 122 117 112 125 132 155 137 132 154 87 228 60 86 131 215 160 236 133 173 173 163 153 193 190 209 275 225 134 155 187 154 163
181 183 183 183 184 184 183 181 176 171 160 149 143 146 148 145 149 164 108 111 143 155 157 167 175 158 157 98 151 126 196 7 146 226 171 168 184 181 182 212 225 189 221 202 214 250 174
Height
1508 1510 1510 1510 1509 1507 1506 1504 1501 1499 1497 1496 1495 1494 1494 1494 1495 1496 1498 1500 1502 1504 1506 1508 1509 1511 1513 1513 1508 1507 1507 1507 1507 1506 1505 1505 1505 1506 1504 1501 1502 1506 1506 1509 1512 1512 1514
1505 1507 1508 1507 1506 1504 1503 1500 1498 1496 1494 1492 1492 1491 1492 1492 1493 1495 1497 1499 1502 1505 1507 1508 1509 1511 1512 1512 1506 1507 1507 1506 1506 1506 1506 1504 1506 1502 1501 1501 1501 1504 1508 1512 1515 1516 1516
1502 1504 1505 1505 1503 1502 1500 1497 1495 1493 1491 1490 1490 1489 1490 1491 1492 1494 1496 1499 1503 1506 1507 1507 1509 1511 1511 1507 1505 1505 1505 1506 1505 1504 1503 1501 1501 1499 1501 1503 1505 1506 1512 1514 1516 1517 1519
1500 1501 1502 1502 1501 1499 1497 1495 1493 1491 1490 1489 1489 1488 1489 1490 1492 1495 1498 1501 1504 1506 1507 1508 1509 1510 1509 1506 1505 1505 1505 1504 1505 1504 1503 1501 1502 1501 1503 1504 1506 1510 1513 1526 1515 1514 1517
1497 1497 1499 1499 1498 1497 1495 1494 1492 1490 1489 1488 1488 1488 1489 1491 1493 1496 1499 1502 1505 1506 1507 1508 1510 1511 1508 1505 1504 1505 1505 1505 1505 1505 1506 1505 1504 1505 1506 1510 1520 1514 1529 1522 1518 1512 1515
1493 1494 1496 1496 1496 1494 1493 1493 1491 1490 1489 1489 1489 1489 1490 1493 1495 1498 1501 1503 1505 1507 1508 1509 1511 1515 1506 1504 1504 1505 1506 1506 1507 1508 1508 1508 1508 1510 1513 1521 1537 1526 1521 1517 1522 1514 1512
1490 1491 1493 1493 1493 1492 1492 1491 1490 1490 1490 1490 1490 1491 1493 1495 1497 1500 1502 1504 1509 1511 1507 1504 1504 1503 1502 1502 1503 1505 1507 1508 1507 1508 1509 1506 1517 1525 1515 1511 1509 1509 1513 1522 1519 1514 1517
1486 1488 1490 1491 1492 1490 1490 1490 1490 1490 1491 1491 1492 1493 1496 1498 1500 1501 1502 1503 1507 1508 1507 1502 1504 1504 1503 1503 1504 1505 1507 1508 1506 1510 1506 1512 1523 1513 1510 1508 1508 1508 1515 1525 1519 1514 1518
1482 1485 1486 1488 1489 1489 1489 1489 1489 1490 1492 1492 1494 1496 1498 1500 1502 1503 1504 1504 1504 1504 1503 1503 1503 1503 1503 1503 1504 1505 1506 1506 1506 1508 1510 1518 1517 1511 1509 1513 1517 1517 1523 1525 1525 1519 1517
1479 1482 1484 1485 1487 1487 1487 1488 1489 1491 1492 1494 1495 1497 1499 1501 1505 1504 1504 1503 1502 1502 1511 1506 1503 1504 1504 1503 1506 1506 1506 1508 1504 1509 1509 1516 1513 1513 1512 1518 1520 1526 1520 1521 1523 1530 1543
1476 1479 1481 1483 1484 1485 1485 1487 1489 1491 1493 1494 1496 1499 1500 1504 1503 1504 1504 1502 1503 1503 1544 1503 1502 1503 1504 1506 1506 1507 1507 1506 1508 1506 1508 1520 1519 1519 1520 1521 1519 1526 1519 1522 1522 1530 1531
1473 1475 1478 1480 1482 1483 1484 1485 1488 1490 1492 1495 1498 1499 1501 1503 1503 1503 1502 1502 1504 1519 1533 1503 1501 1502 1504 1504 1505 1506 1507 1507 1506 1508 1512 1517 1517 1520 1522 1519 1518 1518 1520 1521 1523 1531 1559
1470 1472 1474 1478 1480 1481 1482 1484 1487 1489 1492 1495 1498 1500 1502 1503 1504 1502 1502 1503 1520 1533 1496 1506 1502 1501 1504 1505 1506 1507 1509 1514 1520 1525 1527 1521 1523 1521 1520 1522 1520 1521 1528 1559 1563 1569 1568
1466 1469 1472 1475 1477 1479 1480 1482 1485 1488 1491 1495 1498 1500 1502 1503 1503 1503 1503 1507 1519 1496 1497 1494 1499 1501 1509 1507 1508 1508 1513 1522 1518 1518 1524 1533 1544 1526 1524 1526 1529 1527 1530 1568 1562 1580 1569
1462 1466 1470 1473 1475 1477 1478 1480 1483 1487 1490 1494 1497 1500 1501 1503 1503 1504 1505 1523 1513 1498 1493 1499 1501 1507 1510 1508 1510 1513 1521 1524 1525 1521 1529 1532 1538 1528 1526 1525 1526 1530 1545 1532 1556 1559 1577
1459 1464 1468 1471 1473 1475 1476 1479 1482 1485 1489 1494 1497 1500 1501 1503 1504 1505 1509 1515 1500 1495 1495 1497 1508 1504 1514 1512 1514 1515 1521 1523 1524 1522 1518 1526 1541 1529 1528 1527 1527 1530 1530 1555 1562 1574 1567
1456 1462 1465 1469 1472 1474 1475 1477 1480 1484 1488 1493 1497 1499 1500 1502 1504 1506 1516 1506 1497 1498 1499 1501 1504 1502 1502 1509 1509 1514 1524 1526 1524 1524 1523 1527 1533 1538 1530 1538 1540 1540 1542 1542 1546 1567 1583
1454 1460 1464 1468 1470 1473 1474 1476 1478 1483 1487 1493 1496 1499 1498 1501 1506 1505 1507 1497 1498 1501 1502 1501 1500 1499 1505 1505 1513 1516 1528 1528 1528 1527 1530 1530 1538 1557 1542 1534 1533 1533 1539 1544 1577 1569 1580
1453 1458 1462 1466 1469 1472 1473 1475 1478 1482 1486 1491 1494 1496 1498 1500 1511 1511 1500 1498 1498 1502 1502 1502 1504 1504 1504 1511 1522 1522 1529 1532 1530 1530 1535 1533 1541 1567 1554 1545 1537 1537 1537 1540 1553 1568 1571
1451 1456 1461 1466 1468 1471 1473 1475 1478 1481 1485 1490 1492 1498 1499 1500 1498 1500 1499 1501 1502 1502 1503 1503 1505 1506 1509 1514 1514 1525 1531 1533 1532 1532 1533 1533 1535 1550 1566 1548 1543 1544 1542 1540 1551 1577 1568
1451 1456 1461 1465 1468 1471 1473 1475 1477 1481 1485 1490 1490 1489 1491 1502 1498 1498 1496 1499 1504 1506 1504 1505 1508 1509 1512 1519 1520 1528 1531 1534 1534 1534 1533 1535 1547 1545 1543 1542 1541 1543 1545 1544 1545 1547 1561
1450 1456 1461 1465 1468 1471 1473 1475 1477 1481 1485 1489 1488 1486 1489 1491 1493 1494 1496 1497 1501 1503 1505 1508 1509 1508 1511 1519 1521 1527 1525 1530 1532 1534 1534 1537 1555 1548 1549 1545 1547 1550 1545 1543 1541 1540 1539
1450 1456 1461 1465 1468 1470 1473 1475 1477 1481 1485 1487 1488 1487 1487 1491 1492 1497 1497 1494 1496 1498 1504 1505 1507 1514 1520 1523 1522 1523 1524 1526 1528 1533 1538 1543 1553 1564 1565 1555 1557 1565 1544 1539 1536 1535 1537
1450 1456 1460 1464 1467 1470 1473 1476 1478 1480 1483 1485 1485 1486 1487 1498 1493 1494 1493 1494 1498 1498 1503 1507 1507 1511 1524 1523 1524 1527 1528 1531 1532 1535 1536 1547 1553 1566 1575 1568 1575 1541 1535 1534 1537 1538 1538
1450 1456 1460 1464 1467 1470 1473 1476 1478 1480 1482 1485 1486 1488 1489 1499 1492 1492 1493 1495 1498 1501 1508 1510 1511 1513 1520 1523 1535 1542 1551 1548 1544 1539 1540 1540 1554 1574 1575 1574 1555 1536 1534 1537 1540 1545 1540
1450 1456 1460 1464 1467 1470 1473 1476 1478 1480 1482 1484 1486 1487 1489 1491 1494 1492 1493 1494 1502 1506 1513 1516 1518 1520 1522 1528 1543 1554 1557 1545 1549 1545 1545 1546 1549 1564 1578 1584 1584 1543 1534 1535 1536 1554 1540
1450 1455 1459 1463 1467 1470 1473 1476 1478 1480 1482 1484 1485 1487 1489 1490 1491 1491 1494 1496 1499 1505 1514 1518 1520 1523 1524 1538 1547 1555 1548 1534 1548 1552 1561 1564 1563 1573 1565 1583 1558 1534 1532 1533 1549 1549 1537
1449 1454 1459 1463 1467 1470 1473 1476 1478 1480 1482 1483 1485 1487 1489 1490 1493 1493 1494 1495 1499 1503 1514 1517 1524 1525 1529 1539 1547 1547 1550 1541 1539 1537 1546 1555 1566 1563 1559 1564 1564 1525 1529 1539 1533 1531 1533
1449 1454 1458 1463 1467 1470 1472 1475 1477 1480 1482 1483 1485 1487 1489 1491 1494 1495 1496 1498 1499 1502 1506 1512 1513 1515 1519 1530 1535 1536 1542 1539 1543 1546 1528 1540 1535 1544 1544 1540 1521 1521 1521 1523 1524 1527 1530